Temp
18 15 15 16 16 18 18 20 19 18 20 21 20 19 19 21 21 21 22 22 20 20 19 19 19 19 19 19 18 17 16 16 15 14 14 14 13 13 13 13 12 12 12 12
15 14 16 18 18 19 20 19 18 19 20 20 18 17 17 18 20 23 23 19 19 18 18 18 18 18 19 18 17 16 16 15 14 13 13 13 12 12 12 12 11 12 11 11
14 17 18 19 20 19 19 19 19 19 18 19 18 17 18 20 21 22 22 20 19 18 18 17 17 17 17 16 16 15 14 14 14 14 14 14 13 12 12 11 11 10 10 11
15 17 19 19 19 19 18 19 19 19 17 16 17 13 16 19 18 17 17 17 16 15 16 16 16 15 14 14 13 14 14 14 14 14 14 14 13 13 13 13 11 10 10 9
17 19 18 18 19 19 18 20 20 19 17 16 16 14 14 17 19 16 13 14 15 15 15 15 16 16 15 14 14 14 14 14 14 14 14 14 13 13 12 11 10 8 8 8
17 20 18 18 19 19 20 19 17 15 14 13 15 15 14 16 20 16 15 14 14 14 14 15 15 15 15 15 15 14 14 14 14 13 13 13 13 12 12 11 10 9 9 8
18 18 19 20 19 20 19 15 13 14 13 13 17 16 15 17 18 17 14 13 13 14 14 14 15 15 15 14 14 14 14 13 13 12 12 12 12 11 11 11 10 10 9 10
16 16 20 19 18 17 16 15 13 15 14 14 16 15 17 17 16 18 14 14 15 15 15 15 15 14 14 13 14 14 13 13 13 13 12 12 11 11 11 11 9 9 9 9
16 17 20 20 21 19 18 16 16 15 14 12 13 15 17 16 14 14 14 14 15 15 15 15 14 13 14 14 14 13 13 12 12 12 12 11 10 10 10 10 9 9 8 8
16 14 17 19 20 19 18 17 16 13 13 13 13 14 15 16 15 13 12 13 15 15 14 14 14 14 14 13 13 13 13 12 12 12 12 11 10 10 10 9 9 9 8 8
14 14 14 17 17 16 16 16 16 15 12 12 10 11 13 14 14 13 12 14 15 15 15 14 14 14 13 13 13 12 12 12 12 11 11 11 10 9 9 9 9 9 8 8
12 10 10 14 15 14 15 15 15 12 13 10 10 14 17 14 14 14 13 14 14 15 14 14 14 13 13 12 12 12 12 11 11 11 10 10 9 9 8 8 8 8 8 8
11 11 10 13 13 14 13 13 14 14 12 13 11 12 13 14 13 14 14 14 14 14 14 14 13 13 12 12 12 11 11 10 10 9 9 9 9 8 8 7 7 7 7 7
14 11 12 13 13 13 13 13 13 13 8 11 13 13 14 13 12 12 13 14 14 14 14 13 11 11 10 10 10 10 9 9 9 9 9 8 8 8 8 8 7 7 6 6
11 11 12 11 12 13 13 13 13 11 11 10 12 12 13 13 13 12 14 14 14 13 12 10 9 9 9 10 10 9 9 9 8 8 8 8 8 8 8 8 7 7 7 6
7 10 9 10 11 11 11 11 11 11 11 11 11 12 14 15 15 13 13 13 12 11 10 9 9 9 9 9 8 8 8 8 7 7 7 7 7 7 8 7 7 7 7 6
6 7 6 10 10 10 8 9 10 11 11 12 10 12 14 12 12 12 13 13 11 9 9 9 9 8 8 8 8 7 7 6 6 6 6 6 6 6 7 7 7 7 7 6
6 6 5 7 7 8 11 11 11 10 11 11 12 12 13 12 12 12 12 11 9 8 8 8 8 8 8 7 7 7 7 6 6 6 6 5 5 5 6 6 6 6 6 6
8 6 6 7 7 9 10 11 11 10 11 11 11 11 11 9 9 7 9 9 8 8 8 8 8 7 7 7 7 7 7 6 5 5 4 4 4 4 4 5 5 4 4 4
7 7 7 6 7 8 10 11 12 12 9 10 11 10 9 8 6 4 8 8 8 7 7 7 7 7 7 7 6 6 5 5 5 4 4 3 3 4 4 3 3 2 2 2
6 6 6 7 7 6 9 11 12 9 10 8 9 8 8 6 6 8 7 7 7 7 7 7 7 7 7 6 6 4 4 4 4 3 2 2 2 3 2 2 2 2 2 2
6 6 6 6 7 7 9 9 9 9 8 8 8 8 8 8 8 7 7 7 7 7 7 6 6 6 6 5 4 4 4 4 3 2 1 1 1 2 2 2 2 2 1 1
6 7 6 6 6 9 9 9 10 11 9 8 8 8 8 8 7 7 7 6 6 6 6 6 6 5 4 4 4 4 4 3 2 0 1 1 1 1 1 1 1 1 1 0
6 7 5 5 6 7 8 9 9 9 9 8 8 8 7 7 6 6 6 6 6 6 5 5 4 4 4 4 4 4 3 2 2 1 1 1 1 0 1 0 -0 0 -0 -0
6 6 5 5 7 7 7 8 8 8 7 7 7 6 6 6 6 6 6 6 5 4 3 3 3 3 3 3 3 3 2 1 2 2 2 1 -0 -0 -0 -1 -1 -1 -0 -1
5 5 5 5 6 7 6 6 6 6 6 6 6 5 5 5 5 4 4 3 3 3 2 2 2 1 1 1 1 1 1 1 0 1 2 1 1 -1 -1 -1 -1 -2 -1 -1
Height
1496 1502 1505 1497 1496 1493 1494 1493 1498 1491 1481 1480 1481 1481 1474 1469 1467 1465 1464 1465 1468 1469 1469 1468 1467 1469 1473 1476 1481 1484 1489 1492 1494 1496 1498 1500 1500 1501 1500 1502 1502 1501 1500 1502
1501 1504 1491 1491 1491 1491 1488 1493 1495 1485 1482 1482 1482 1479 1470 1466 1462 1460 1458 1462 1464 1466 1467 1468 1468 1469 1471 1474 1479 1483 1487 1490 1494 1495 1497 1498 1499 1500 1499 1499 1498 1497 1497 1497
1503 1490 1482 1488 1488 1491 1491 1494 1493 1493 1484 1479 1480 1481 1471 1460 1459 1457 1454 1454 1459 1459 1461 1464 1466 1467 1470 1473 1477 1481 1485 1488 1490 1492 1493 1495 1496 1496 1496 1495 1494 1493 1491 1491
1496 1483 1484 1485 1487 1487 1496 1482 1484 1487 1491 1502 1482 1509 1476 1456 1455 1454 1452 1452 1457 1461 1463 1465 1467 1469 1471 1473 1476 1479 1481 1485 1488 1490 1491 1493 1494 1493 1491 1490 1487 1486 1484 1484
1488 1481 1485 1488 1483 1481 1488 1480 1482 1482 1491 1494 1487 1500 1478 1459 1454 1455 1452 1450 1454 1459 1463 1466 1468 1470 1472 1475 1478 1481 1482 1485 1486 1487 1488 1487 1486 1486 1484 1482 1481 1479 1478 1476
1481 1478 1478 1479 1477 1478 1477 1481 1484 1489 1498 1513 1488 1492 1485 1466 1453 1457 1458 1457 1458 1460 1463 1466 1468 1470 1473 1476 1478 1479 1481 1483 1484 1484 1483 1483 1481 1480 1479 1476 1475 1473 1471 1470
1481 1477 1472 1472 1479 1476 1479 1495 1516 1512 1515 1512 1479 1485 1472 1454 1447 1446 1454 1458 1459 1461 1462 1464 1467 1469 1472 1474 1476 1478 1479 1480 1481 1480 1479 1478 1476 1474 1471 1470 1469 1468 1467 1466
1493 1496 1470 1467 1471 1478 1482 1489 1511 1511 1512 1502 1479 1485 1463 1451 1447 1446 1452 1456 1459 1460 1462 1463 1465 1468 1471 1473 1474 1475 1475 1476 1475 1474 1474 1472 1472 1469 1466 1462 1462 1463 1461 1460
1487 1484 1465 1463 1463 1468 1478 1489 1479 1493 1493 1505 1490 1469 1455 1452 1452 1452 1454 1456 1458 1460 1461 1462 1464 1467 1468 1469 1470 1471 1472 1472 1472 1470 1468 1466 1465 1466 1462 1460 1459 1456 1455 1454
1477 1489 1470 1465 1465 1466 1470 1471 1489 1495 1505 1504 1485 1476 1468 1457 1454 1454 1454 1453 1455 1458 1459 1461 1463 1465 1466 1466 1467 1468 1467 1467 1466 1465 1463 1461 1459 1458 1457 1455 1455 1453 1450 1448
1474 1482 1481 1469 1470 1473 1474 1478 1478 1481 1493 1500 1502 1483 1451 1449 1449 1451 1451 1451 1453 1456 1458 1459 1460 1461 1461 1462 1462 1462 1461 1460 1460 1459 1458 1456 1455 1451 1449 1448 1447 1448 1446 1443
1475 1485 1492 1478 1469 1468 1469 1472 1473 1491 1485 1490 1492 1451 1443 1445 1445 1447 1449 1451 1453 1454 1455 1455 1455 1455 1454 1454 1454 1454 1455 1454 1455 1454 1452 1451 1449 1448 1445 1442 1442 1441 1440 1439
1472 1482 1490 1476 1474 1468 1471 1467 1466 1468 1473 1471 1486 1459 1441 1444 1446 1445 1446 1448 1449 1450 1451 1451 1450 1449 1450 1450 1450 1451 1450 1449 1449 1449 1447 1444 1441 1441 1440 1438 1436 1435 1434 1434
1460 1472 1473 1472 1470 1467 1471 1469 1467 1472 1487 1468 1448 1444 1446 1444 1444 1443 1444 1444 1445 1446 1446 1446 1446 1445 1445 1445 1446 1446 1446 1445 1444 1444 1442 1440 1437 1435 1434 1433 1431 1430 1428 1427
1461 1466 1467 1463 1461 1462 1456 1455 1460 1464 1464 1469 1443 1445 1442 1438 1439 1438 1437 1438 1439 1440 1441 1443 1444 1443 1442 1441 1442 1442 1442 1440 1438 1436 1434 1433 1428 1429 1427 1427 1425 1424 1422 1422
1463 1461 1466 1456 1459 1458 1454 1445 1452 1452 1451 1451 1444 1428 1430 1430 1430 1430 1430 1431 1432 1433 1436 1437 1440 1441 1439 1439 1439 1437 1436 1434 1432 1431 1429 1427 1423 1420 1421 1418 1418 1417 1416 1417
1459 1463 1468 1451 1455 1458 1453 1430 1433 1432 1429 1429 1438 1412 1415 1423 1423 1422 1422 1423 1425 1428 1432 1435 1435 1435 1435 1434 1432 1430 1429 1428 1427 1427 1424 1421 1420 1414 1413 1413 1410 1410 1410 1411
1450 1455 1462 1453 1457 1453 1413 1413 1415 1417 1412 1415 1413 1409 1412 1414 1414 1414 1414 1416 1422 1426 1429 1431 1431 1431 1429 1428 1427 1425 1424 1423 1421 1418 1414 1412 1412 1409 1406 1406 1404 1405 1405 1405
1435 1442 1449 1449 1443 1428 1406 1406 1410 1410 1398 1400 1404 1402 1405 1409 1413 1417 1417 1418 1422 1425 1426 1425 1426 1425 1424 1423 1422 1421 1419 1417 1415 1411 1406 1405 1405 1403 1399 1399 1399 1399 1399 1399
1430 1431 1434 1441 1436 1425 1398 1396 1396 1399 1402 1389 1390 1393 1398 1404 1415 1416 1416 1417 1418 1421 1421 1421 1422 1421 1418 1417 1415 1414 1412 1410 1407 1403 1399 1396 1396 1395 1393 1393 1393 1394 1392 1393
1425 1429 1425 1423 1421 1417 1398 1398 1398 1409 1392 1385 1387 1391 1395 1401 1403 1407 1410 1414 1416 1417 1417 1416 1416 1413 1414 1414 1411 1410 1408 1404 1400 1395 1391 1388 1389 1388 1388 1389 1389 1389 1388 1389
1407 1414 1416 1423 1418 1409 1392 1394 1397 1386 1387 1387 1389 1392 1395 1399 1402 1405 1406 1407 1409 1410 1408 1408 1409 1409 1408 1408 1408 1404 1401 1397 1393 1388 1384 1384 1384 1383 1384 1386 1385 1384 1384 1383
1398 1390 1398 1402 1395 1386 1386 1385 1383 1383 1384 1387 1387 1390 1392 1396 1397 1399 1402 1403 1404 1405 1406 1405 1405 1404 1405 1403 1402 1397 1394 1392 1388 1382 1381 1381 1381 1381 1382 1382 1382 1382 1380 1379
1384 1382 1388 1393 1383 1383 1383 1384 1383 1382 1383 1386 1387 1387 1389 1393 1396 1396 1397 1397 1399 1400 1400 1400 1400 1399 1400 1398 1396 1391 1388 1387 1385 1382 1381 1381 1380 1380 1381 1381 1380 1378 1377 1378
1375 1378 1380 1382 1378 1382 1382 1383 1381 1383 1383 1385 1387 1388 1388 1391 1393 1393 1393 1396 1397 1396 1395 1396 1396 1394 1393 1391 1389 1385 1384 1384 1381 1379 1377 1378 1379 1379 1379 1379 1377 1377 1376 1377
1367 1368 1371 1368 1367 1371 1375 1378 1380 1379 1381 1383 1385 1387 1386 1388 1388 1390 1391 1394 1394 1393 1391 1392 1391 1390 1387 1385 1384 1382 1381 1378 1376 1373 1374 1375 1376 1377 1377 1376 1376 1376 1375 1376
Wind_Speed
3 1 7 9 7 7 6 3 3 5 6 2 3 6 10 17 19 16 21 20 20 24 21 19 21 19 20 22 27 23 17 13 14 14 17 15 18 17 17 19 22 24 21 19
4 6 11 4 9 8 2 4 6 5 3 2 6 10 10 8 11 20 24 9 28 27 24 19 16 15 12 18 21 19 14 12 10 9 11 14 15 15 17 21 22 23 24 24
6 6 3 6 3 2 3 3 3 4 6 2 6 7 7 6 8 18 21 16 30 34 30 23 18 16 16 18 18 17 15 11 6 4 3 6 10 16 19 20 23 25 27 29
7 10 5 5 5 5 4 5 5 2 4 2 5 5 7 10 7 2 2 23 29 29 26 23 20 18 17 18 16 12 10 7 5 2 3 6 10 15 18 22 25 26 29 30
8 4 6 5 8 4 7 3 2 2 1 2 3 1 8 6 5 4 5 23 30 29 26 22 18 15 13 13 12 9 7 3 6 10 13 16 20 24 24 24 28 27 29 30
7 2 5 8 6 7 1 2 4 4 3 2 4 5 5 4 2 3 1 23 30 28 25 20 15 12 12 10 5 3 5 8 12 15 16 20 24 25 24 24 24 24 24 26
3 6 5 7 5 1 3 5 4 4 1 5 3 3 8 6 7 13 12 21 29 26 22 18 14 10 9 6 4 2 5 10 13 16 20 23 24 22 24 26 23 22 23 21
4 6 4 4 8 8 6 8 5 5 3 5 8 6 6 4 4 16 23 30 26 20 17 14 9 10 8 6 2 6 8 8 13 19 25 23 22 24 26 26 22 23 21 17
3 5 2 4 3 7 3 4 6 2 2 0 5 7 5 4 5 11 18 23 20 17 15 13 11 11 4 4 6 8 8 10 14 23 27 22 21 26 30 27 24 26 22 20
2 4 5 9 3 1 6 3 0 2 4 5 4 5 6 4 6 7 8 20 24 21 16 15 9 5 4 5 6 9 13 15 18 22 24 22 21 24 29 26 23 30 22 21
2 3 5 4 2 6 1 1 1 3 5 5 3 6 5 11 8 10 9 21 21 19 14 10 7 5 6 7 7 10 13 17 19 21 22 24 27 26 20 20 23 26 25 24
0 4 4 8 6 4 4 5 6 4 6 4 4 18 4 8 8 15 13 18 16 11 11 10 7 7 7 7 10 13 16 15 17 20 21 24 25 23 21 18 21 23 26 25
7 2 3 4 2 2 7 5 6 5 2 12 7 8 3 5 6 16 21 16 10 7 9 11 10 9 8 8 10 11 8 11 13 15 19 22 22 21 22 19 19 21 22 23
13 6 9 16 9 1 5 5 4 2 2 7 21 23 3 5 8 8 16 13 9 10 13 13 12 8 7 4 3 4 7 10 15 23 23 22 23 24 23 23 21 19 19 18
6 12 15 18 21 20 22 24 23 20 18 10 16 16 8 13 11 17 24 16 15 12 13 15 12 9 4 3 6 10 13 15 17 18 22 23 30 25 23 25 25 25 22 20
3 8 2 18 15 16 21 22 18 22 22 20 26 32 17 23 24 18 21 20 16 17 16 13 8 4 3 8 12 18 22 21 18 21 25 27 22 22 24 26 29 26 24 21
9 6 6 15 9 7 15 20 23 22 22 19 19 30 19 9 10 17 22 19 18 20 14 8 5 6 10 14 19 19 16 22 21 25 29 27 20 22 24 27 29 27 25 22
8 8 5 3 5 7 8 3 12 20 22 20 21 21 15 13 15 13 14 17 20 14 8 3 6 11 15 15 17 22 25 25 27 30 31 30 33 31 28 26 23 22 25 26
12 9 4 4 8 7 17 8 7 9 17 14 18 17 10 15 14 7 13 13 11 6 1 5 9 13 15 17 19 21 23 24 27 31 29 25 26 22 21 24 23 21 22 22
12 13 10 5 5 11 5 3 7 5 16 8 13 10 9 12 5 4 12 6 5 1 4 8 7 9 16 19 20 22 21 23 27 30 31 26 28 32 25 23 23 24 18 20
7 5 14 13 9 6 9 2 1 6 7 5 12 13 12 4 5 14 11 7 2 2 4 8 13 17 19 19 16 16 21 28 30 29 29 22 19 22 18 18 20 17 17 20
12 9 6 6 7 11 13 7 11 5 11 18 15 14 15 13 9 8 4 1 5 9 14 15 15 14 14 11 13 19 26 29 30 34 25 15 16 20 12 14 14 15 17 17
6 8 7 9 6 3 5 12 10 15 18 14 16 12 12 11 9 5 2 3 7 11 13 14 15 13 12 12 18 24 27 25 29 18 12 11 10 10 14 15 14 13 13 15
5 8 3 3 7 11 9 1 7 14 15 13 12 10 7 7 4 1 4 7 10 13 11 10 11 13 17 20 24 28 22 19 22 16 19 16 14 11 11 10 11 9 11 11
4 8 7 4 4 5 10 19 10 12 10 11 11 9 6 3 1 3 5 9 8 6 6 8 10 13 16 19 21 15 12 17 21 16 16 13 11 9 9 8 7 7 6 8
6 7 7 7 10 13 9 15 11 14 13 12 10 6 4 1 2 1 3 4 4 6 10 13 14 15 16 16 15 15 17 16 15 20 17 10 9 9 7 4 5 4 4 6
Wind_Direction
281 50 230 232 215 234 264 243 272 255 298 308 283 280 289 288 294 283 276 267 178 155 152 158 156 156 150 173 206 209 196 208 215 224 240 260 265 279 283 283 275 286 265 277
349 249 245 260 266 235 253 298 293 292 7 351 314 293 256 244 259 272 279 221 166 156 163 157 148 154 158 142 149 171 178 186 197 220 235 247 262 274 279 281 283 277 272 272
181 236 153 189 273 339 290 242 284 266 311 358 357 304 329 286 291 293 280 225 183 166 162 158 146 138 134 135 146 154 153 156 159 175 226 269 275 274 273 277 278 276 272 274
221 251 228 210 232 177 255 213 208 211 21 270 109 279 284 273 290 100 221 161 158 153 151 148 141 131 131 135 141 144 150 151 132 51 325 321 319 305 293 281 267 269 271 273
239 203 194 208 227 183 227 209 245 250 172 354 320 105 270 285 308 174 123 136 147 149 148 142 139 134 138 135 133 128 113 58 339 329 321 318 322 322 310 304 283 269 268 271
248 296 165 209 244 207 259 3 351 44 103 341 261 166 267 266 198 183 134 134 142 142 143 144 144 136 128 122 113 51 8 343 329 319 314 315 314 313 302 313 307 290 277 270
306 257 244 190 218 222 108 60 329 334 20 224 295 303 244 271 260 184 162 154 149 146 145 145 145 132 129 122 108 40 323 312 311 314 317 317 307 297 303 313 310 310 296 292
215 310 211 170 190 189 188 162 172 229 233 255 331 262 266 321 307 157 153 153 157 162 155 153 152 152 157 159 176 301 295 289 306 309 310 304 293 294 304 306 302 303 303 291
231 242 305 111 135 137 218 171 189 182 239 220 226 284 319 44 73 121 148 165 169 167 169 174 173 155 185 256 299 303 292 298 306 312 310 299 287 291 294 297 298 293 300 295
232 281 267 266 118 28 164 173 125 19 286 253 262 248 233 223 182 164 169 171 169 169 170 160 170 199 239 259 274 296 303 307 310 306 298 293 285 283 284 283 280 296 288 289
141 136 281 4 195 188 327 243 264 211 156 226 283 254 223 197 190 185 189 179 177 173 172 179 190 210 260 271 277 291 301 305 302 290 285 293 299 300 293 280 279 286 284 282
175 131 211 222 277 239 212 222 187 190 248 231 209 259 220 197 201 182 183 170 172 188 194 195 222 222 216 227 259 281 294 294 281 271 281 297 302 307 306 293 280 281 285 272
183 176 313 267 277 320 251 207 214 249 146 234 230 252 150 149 187 176 165 180 191 210 222 248 217 208 224 259 280 290 304 272 262 280 287 294 298 303 306 304 296 283 281 265
157 180 226 255 249 235 272 273 283 225 230 271 238 264 200 194 183 179 192 197 224 263 255 232 186 181 198 229 289 298 287 277 284 296 284 285 294 294 294 292 295 290 295 287
142 246 240 248 250 251 259 252 257 267 254 248 271 253 224 228 236 214 217 226 241 253 185 166 157 163 187 265 289 294 301 302 300 298 284 279 291 286 287 286 287 285 287 285
151 242 247 261 245 244 258 252 244 242 251 260 266 268 248 255 242 218 220 218 222 190 174 169 180 211 283 316 315 312 308 303 300 297 298 293 285 280 285 285 280 282 272 274
166 162 163 257 233 242 261 249 230 232 233 232 240 247 280 236 226 232 243 237 204 179 179 188 226 292 318 324 324 326 324 330 314 309 302 294 291 292 291 287 281 273 271 266
167 175 168 240 134 221 244 173 209 220 238 227 245 257 258 257 249 252 239 198 162 169 175 230 313 321 326 323 323 317 315 316 316 320 316 297 279 282 287 294 287 270 265 270
189 174 196 204 212 304 286 223 195 176 257 206 226 240 227 145 117 92 131 140 148 158 240 337 324 314 312 310 310 297 304 309 315 322 310 294 279 282 290 290 285 277 272 266
199 208 205 167 219 212 229 118 131 120 263 192 209 207 158 153 152 206 165 157 149 132 335 328 320 314 315 316 298 285 299 311 316 318 310 292 284 276 286 285 285 281 270 266
186 200 215 223 238 260 242 172 95 183 249 142 133 135 136 135 146 146 156 148 112 335 324 316 318 318 317 315 297 295 314 316 314 315 317 285 282 290 281 273 279 287 269 266
178 176 200 213 236 251 197 190 205 192 146 138 132 134 122 128 135 143 139 1 328 324 324 326 316 313 314 316 309 315 317 320 313 306 291 279 278 289 274 272 283 287 276 272
199 191 176 198 209 222 179 244 255 210 165 164 150 146 144 143 140 138 107 345 327 322 309 304 305 301 312 312 309 306 312 307 315 314 268 309 294 270 269 275 276 278 275 274
237 196 219 137 232 231 177 127 175 173 155 153 150 150 156 149 148 115 320 318 301 294 286 279 285 300 308 312 314 314 303 296 309 294 299 302 276 270 274 272 275 279 272 264
185 151 185 242 258 113 176 213 206 158 137 132 128 128 128 141 232 283 283 279 272 226 245 280 301 309 312 319 325 319 304 294 296 292 267 281 259 248 252 267 272 273 277 254
185 191 187 213 205 190 169 201 167 147 148 147 152 136 113 143 113 134 205 220 248 276 287 294 306 309 309 312 308 302 297 301 282 278 239 240 265 233 240 254 274 287 253 267